2018-014H

Last updated on Nov. 16, 2018, 12:08 a.m. UTC

1 43187U 18014H   18319.53628175  .00000071  00000-0  11343-4 0  9990
2 43187  97.7158 225.9758 0011347  12.3015 347.8482 14.96532290 42955
UTC
Height (km)
Latitude
Longitude
Inclination
Orbital Period
UTC large
Height (km)
Speed (km/s)
/
Latitude / Longitude
Inclination (degrees)
Orbital Period (minutes)
Azimuth
Elevation
Range (km)
Doppler Factor
iOS Compass Heading
iOS Angle